Atlanta Fulton, GA

6:52 PM EDT on June 27, 2017 (GMT -0400)
Fulton County-Brown

Weather History for KFTY - January, 2014

Change the Weather History Date:

Saturday, January 18, 2014

  Actual Average Record
Temperature  
Mean Temperature 36 °F 43 °F  
Max Temperature 46 °F 53 °F 70 °F (2017)
Min Temperature 25 °F 33 °F 6 °F (2016)
Degree Days  
Heating Degree Days 29 22  
Month to date heating degree days 482 396  
Since 1 July heating degree days 1619 1533  
Moisture  
Dew Point 11 °F    
Average Humidity 39    
Maximum Humidity 60    
Minimum Humidity 18    
Precipitation  
Precipitation 0.00 in 0.16 in 2.32 in (1988)
Month to date precipitation 2.52 2.04  
Year to date precipitation 2.52 2.04  
Snow  
Snow 0.00 in - - ()
Month to date snowfall T  
Since 1 July snowfall T  
Snow Depth 0.00 in    
Sea Level Pressure  
Sea Level Pressure 30.11 in    
Wind  
Wind Speed 7 mph (West)    
Max Wind Speed 14 mph    
Max Gust Speed 20 mph    
Visibility 10 miles    
Events      
T = Trace of Precipitation, MM = Missing Value Source: NWS Daily Summary

Daily Weather History Graph

Daily Weather History Graph

Search for Another Location

Airport or City:

Trip Planner

Search our weather history database for the weather conditions in past years. The results will help you decide how hot, cold, wet, or windy it might be!

Date:

Astronomy

Jan. 18, 2014 Rise Set
Actual Time 7:41 AM EST 5:55 PM EST
Civil Twilight 7:15 AM EST 6:22 PM EST
Nautical Twilight 6:44 AM EST 6:52 PM EST
Astronomical Twilight 6:14 AM EST 7:22 PM EST
Moon 8:27 PM EST (1/18) 8:49 AM EST (1/18)
Length of Visible Light 11h 07m
Length of Day
10h 13m
Waning Gibbous, 94% of the Moon is Illuminated
Jan 18
Waning Gibbous
Jan 24
Last Quarter
Jan 30
New
Feb 6
First Quarter
Feb 14
Full

Hourly Weather History & Observations

Time (EST) Temp. Windchill Dew Point Humidity Pressure Visibility Wind Dir Wind Speed Gust Speed Precip Events Conditions
12:53 AM 30.0 °F 26.5 °F 14.0 °F 51% 30.09 in 10.0 mi WNW 3.5 mph - N/A   Clear
1:53 AM 30.0 °F 23.2 °F 14.0 °F 51% 30.10 in 10.0 mi West 6.9 mph - N/A   Clear
2:53 AM 28.9 °F 21.1 °F 14.0 °F 54% 30.12 in 10.0 mi West 8.1 mph - N/A   Clear
3:53 AM 28.0 °F 21.7 °F 14.0 °F 56% 30.12 in 10.0 mi WNW 5.8 mph - N/A   Clear
4:53 AM 28.0 °F 19.3 °F 12.9 °F 53% 30.13 in 10.0 mi WNW 9.2 mph - N/A   Clear
5:53 AM 27.0 °F 18.7 °F 12.9 °F 56% 30.15 in 10.0 mi WNW 8.1 mph - N/A   Clear
6:53 AM 26.1 °F 19.4 °F 12.0 °F 55% 30.16 in 10.0 mi WNW 5.8 mph - N/A   Clear
7:53 AM 25.0 °F 18.1 °F 12.9 °F 60% 30.17 in 10.0 mi West 5.8 mph - N/A   Clear
8:53 AM 27.0 °F 21.6 °F 12.9 °F 56% 30.20 in 10.0 mi WSW 4.6 mph - N/A   Clear
9:53 AM 28.9 °F 19.2 °F 12.0 °F 49% 30.24 in 10.0 mi NW 11.5 mph 18.4 mph N/A   Clear
10:53 AM 33.1 °F 23.4 °F 12.0 °F 42% 30.24 in 10.0 mi WNW 13.8 mph 19.6 mph N/A   Clear
11:53 AM 34.0 °F 28.0 °F 10.9 °F 38% 30.22 in 10.0 mi WNW 6.9 mph - N/A   Clear
12:53 PM 37.9 °F 32.1 °F 10.0 °F 32% 30.17 in 10.0 mi West 8.1 mph - N/A   Clear
1:53 PM 41.0 °F 35.2 °F 7.0 °F 25% 30.12 in 10.0 mi West 9.2 mph 17.3 mph N/A   Clear
2:53 PM 43.0 °F 40.3 °F 6.1 °F 22% 30.10 in 10.0 mi SW 4.6 mph - N/A   Clear
3:53 PM 44.1 °F 38.6 °F 3.9 °F 19% 30.08 in 10.0 mi SW 10.4 mph - N/A   Clear
4:53 PM 45.0 °F 39.7 °F 3.9 °F 18% 30.06 in 10.0 mi SSW 10.4 mph - N/A   Clear
5:53 PM 44.1 °F 41.5 °F 6.1 °F 21% 30.05 in 10.0 mi Variable 4.6 mph - N/A   Clear
6:53 PM 42.1 °F 39.2 °F 8.1 °F 25% 30.06 in 10.0 mi South 4.6 mph - N/A   Scattered Clouds
7:53 PM 41.0 °F 37.1 °F 9.0 °F 27% 30.03 in 10.0 mi South 5.8 mph - N/A   Partly Cloudy
8:53 PM 39.9 °F 35.1 °F 9.0 °F 28% 30.02 in 10.0 mi SSW 6.9 mph - N/A   Clear
9:53 PM 36.0 °F - 12.0 °F 37% 30.04 in 10.0 mi Calm Calm - N/A   Clear
10:53 PM 35.1 °F - 14.0 °F 42% 30.02 in 10.0 mi Calm Calm - N/A   Clear
11:53 PM 36.0 °F 33.3 °F 14.0 °F 41% 30.01 in 10.0 mi SW 3.5 mph - N/A   Clear